Location: Del Amo
(33.8464°N, 118.2104°W)
Time: 02:38:01
(UTC+00:00)

SR - Pass Details

Date: 23 September 2024
Orbit: 578 x 855 km, 66.7° (Epoch: 02 October)

Event Time Altitude Azimuth Distance (km) Brightness Sun altitude
Rises 19:38:32 0° 244° (WSW) 2,806 ? 55.6°
Reaches altitude 10° 19:41:27 10° 265° (W) 1,892 ? 55.6°
Maximum altitude 19:44:13 17° 306° (NW) 1,497 ? 55.6°
Drops below altitude 10° 19:46:59 10° 348° (NNW) 1,897 ? 55.6°
Sets 19:49:56 0° 9° (N) 2,817 ? 55.6°
